This demonstration page uses our WeatherBlox Daily Observations layout. Learn more.

Left ArrowRight Arrow

38.80484, -77.04692

Hourly Observations for April 25, 2016

Temp ( °F °C ) Dew Point ( °F °C ) Humidity (%) Winds ( mph kmh ) Pressure ( in mb ) Visibility ( mi km ) Precip ( " mm )
12:52 am 00:52 Mostly Cloudy 53 11.7 38 3.3 57 57 SSW 6 9 30.06 1018 10 16 0.00 0.00
1:52 am 01:52 Mostly Cloudy 54 12.2 39 3.9 57 57 SSW 10 17 30.04 1017 10 16 0.00 0.00
2:52 am 02:52 Clear 53 11.7 42 5.6 66 66 SSE 12 19 30.03 1017 10 16 0.00 0.00
3:52 am 03:52 Clear 52 11.1 44 6.7 75 75 S 8 13 30.04 1017 10 16 0.00 0.00
4:52 am 04:52 Clear 51 10.6 45 7.2 80 80 S 6 9 30.03 1017 10 16 0.00 0.00
5:52 am 05:52 Mostly Clear 51 10.6 46 7.8 83 83 SSE 7 11 30.02 1017 10 16 0.00 0.00
6:52 am 06:52 Mostly Cloudy 51 10.6 46 7.8 83 83 SSW 9 15 30.04 1017 10 16 0.00 0.00
7:52 am 07:52 Mostly Cloudy 54 12.2 46 7.8 75 75 SSW 12 19 30.04 1017 10 16 0.00 0.00
8:52 am 08:52 Mostly Cloudy 58 14.4 48 8.9 70 70 S 7 11 30.03 1017 10 16 0.00 0.00
9:52 am 09:52 Mostly Cloudy 60 15.6 50 10 70 70 SSE 9 15 30.01 1016 10 16 0.00 0.00
10:52 am 10:52 Mostly Cloudy 64 17.8 51 10.6 63 63 SSE 8 13 30.01 1016 10 16 0.00 0.00
11:52 am 11:52 Cloudy 67 19.4 52 11.1 59 59 SSE 8 13 29.98 1015 10 16 0.00 0.00
12:52 pm 12:52 Cloudy 71 21.7 52 11.1 51 51 SSE 5 7 29.97 1015 10 16 0.00 0.00
1:52 pm 13:52 Cloudy 74 23.3 53 11.7 48 48 S 7 11 29.94 1014 10 16 0.00 0.00
2:52 pm 14:52 Cloudy 75 23.9 53 11.7 46 46 S 8 13 29.92 1013 10 16 0.00 0.00
3:52 pm 15:52 Cloudy 77 25 51 10.6 40 40 S 9 15 29.90 1013 10 16 0.00 0.00
4:52 pm 16:52 Mostly Cloudy 76 24.4 50 10 40 40 S 7 11 29.88 1012 10 16 0.00 0.00
5:52 pm 17:52 Mostly Cloudy 76 24.4 51 10.6 42 42 S 6 9 29.86 1011 10 16 0.00 0.00
6:52 pm 18:52 Mostly Cloudy 77 25 54 12.2 45 45 SSE 7 11 29.85 1011 10 16 0.00 0.00
7:52 pm 19:52 Mostly Cloudy 74 23.3 56 13.3 54 54 SE 10 17 29.83 1010 10 16 0.00 0.00
8:52 pm 20:52 Mostly Cloudy 71 21.7 57 13.9 61 61 Calm 29.83 1010 10 16 0.00 0.00
9:52 pm 21:52 Partly Cloudy 69 20.6 57 13.9 66 66 SSE 7 11 29.82 1010 10 16 0.00 0.00
10:52 pm 22:52 Mostly Cloudy 67 19.4 58 14.4 73 73 SSW 7 11 29.80 1009 10 16 0.00 0.00
11:52 pm 23:52 Partly Cloudy 68 20 59 15 73 73 S 12 19 29.79 1009 10 16 0.00 0.00

Powered by AerisWeather